QPF
0.00 0.00 0.00 0.00 0.00 0.00 0.00 0.00 0.00 0.00 0.02 0.02 0.01 0.00 0.00 0.00 0.00 0.00 0.00 0.00 0.00 0.00 0.00 0.00 0.00 0.00 0.00
0.00 0.00 0.00 0.00 0.00 0.00 0.00 0.00 0.00 0.00 0.02 0.04 0.00 0.00 0.00 0.00 0.00 0.00 0.00 0.00 0.00 0.00 0.00 0.00 0.00 0.00 0.00
0.00 0.00 0.00 0.00 0.00 0.00 0.00 0.00 0.00 0.00 0.01 0.03 0.03 0.00 0.00 0.00 0.00 0.00 0.00 0.00 0.00 0.00 0.00 0.00 0.00 0.00 0.00
0.00 0.00 0.00 0.00 0.00 0.00 0.00 0.00 0.00 0.01 0.02 0.01 0.01 0.01 0.00 0.00 0.00 0.00 0.00 0.00 0.00 0.00 0.00 0.00 0.00 0.00 0.00
0.00 0.00 0.00 0.00 0.00 0.00 0.00 0.00 0.01 0.01 0.01 0.00 0.01 0.00 0.00 0.00 0.00 0.00 0.00 0.00 0.00 0.00 0.00 0.00 0.00 0.00 0.00
0.00 0.00 0.00 0.00 0.00 0.00 0.01 0.02 0.02 0.01 0.00 0.00 0.00 0.00 0.00 0.00 0.00 0.00 0.00 0.00 0.00 0.00 0.00 0.00 0.00 0.00 0.00
0.00 0.00 0.00 0.00 0.00 0.00 0.00 0.00 0.00 0.00 0.00 0.00 0.00 0.00 0.00 0.00 0.00 0.00 0.00 0.00 0.00 0.00 0.00 0.00 0.00 0.00 0.00
0.00 0.00 0.00 0.00 0.00 0.00 0.00 0.00 0.00 0.00 0.00 0.00 0.00 0.00 0.00 0.00 0.00 0.00 0.00 0.00 0.00 0.00 0.00 0.00 0.00 0.00 0.00
0.00 0.00 0.00 0.00 0.00 0.00 0.00 0.00 0.00 0.00 0.00 0.00 0.00 0.00 0.00 0.00 0.00 0.00 0.00 0.00 0.00 0.00 0.00 0.00 0.00 0.00 0.00
0.00 0.00 0.00 0.00 0.00 0.00 0.00 0.00 0.00 0.00 0.00 0.00 0.00 0.00 0.00 0.00 0.00 0.00 0.00 0.00 0.00 0.00 0.00 0.00 0.00 0.00 0.00
0.00 0.00 0.00 0.00 0.00 0.00 0.00 0.00 0.00 0.00 0.00 0.00 0.00 0.00 0.00 0.00 0.00 0.00 0.00 0.00 0.00 0.00 0.00 0.00 0.00 0.00 0.00
0.00 0.00 0.00 0.00 0.00 0.00 0.00 0.00 0.00 0.00 0.00 0.00 0.00 0.00 0.00 0.00 0.00 0.00 0.00 0.00 0.00 0.00 0.00 0.00 0.00 0.00 0.00
0.00 0.00 0.00 0.00 0.00 0.00 0.00 0.00 0.00 0.00 0.00 0.00 0.00 0.00 0.00 0.00 0.00 0.00 0.00 0.00 0.00 0.00 0.00 0.00 0.00 0.00 0.00
0.00 0.00 0.00 0.00 0.00 0.00 0.00 0.00 0.00 0.00 0.00 0.00 0.00 0.00 0.00 0.00 0.00 0.00 0.00 0.00 0.00 0.00 0.00 0.00 0.00 0.00 0.00
0.00 0.00 0.00 0.00 0.00 0.00 0.00 0.00 0.00 0.00 0.00 0.00 0.00 0.00 0.00 0.00 0.00 0.00 0.00 0.00 0.00 0.00 0.00 0.00 0.00 0.00 0.00
0.00 0.00 0.00 0.00 0.00 0.00 0.00 0.00 0.00 0.00 0.00 0.00 0.00 0.00 0.00 0.00 0.00 0.00 0.00 0.00 0.00 0.00 0.00 0.00 0.00 0.00 0.00
0.00 0.00 0.00 0.00 0.00 0.00 0.00 0.00 0.00 0.00 0.00 0.00 0.00 0.00 0.00 0.00 0.00 0.00 0.00 0.00 0.00 0.00 0.00 0.00 0.00 0.00 0.00
MSLP
1023.29 1023.41 1023.58 1023.56 1023.74 1023.82 1023.95 1023.97 1023.75 1023.42 1023.37 1023.47 1023.64 1024.00 1024.06 1024.31 1024.44 1024.50 1024.63 1024.99 1024.81 1024.78 1024.99 1024.76 1024.68 1024.29 1024.16
1023.18 1023.36 1023.53 1023.78 1023.92 1024.12 1024.35 1024.46 1024.21 1023.88 1023.63 1023.79 1024.12 1024.32 1024.50 1024.76 1024.93 1025.09 1025.27 1025.38 1025.55 1025.78 1025.65 1025.50 1025.13 1024.74 1024.61
1022.83 1023.14 1023.62 1024.00 1024.32 1024.52 1024.65 1024.80 1024.77 1024.70 1024.49 1024.51 1024.67 1024.76 1024.97 1025.14 1025.42 1025.45 1025.63 1025.88 1026.17 1026.09 1026.04 1026.06 1025.59 1025.40 1025.28
1022.72 1023.13 1023.50 1023.98 1024.17 1024.54 1025.01 1025.29 1025.44 1025.31 1025.33 1025.28 1025.28 1025.28 1025.38 1025.64 1025.89 1026.04 1026.32 1026.36 1026.41 1026.26 1026.18 1026.29 1026.10 1025.76 1025.70
1022.74 1023.17 1023.58 1023.94 1024.10 1024.51 1025.02 1025.60 1026.14 1026.13 1025.90 1026.08 1026.04 1026.07 1026.20 1026.18 1026.35 1026.48 1026.62 1026.76 1026.73 1026.53 1026.54 1026.48 1026.39 1026.23 1026.13
1022.67 1023.00 1023.46 1023.76 1024.15 1024.54 1025.09 1025.70 1026.27 1026.58 1026.32 1026.71 1026.65 1026.71 1026.81 1026.62 1026.57 1026.68 1026.86 1027.00 1026.87 1026.91 1026.87 1026.83 1026.61 1026.36 1026.21
1022.57 1023.02 1023.47 1023.79 1024.09 1024.50 1025.00 1025.56 1026.27 1026.86 1026.59 1026.96 1027.12 1027.02 1027.16 1026.99 1026.84 1026.96 1027.21 1027.17 1027.13 1027.12 1027.06 1026.91 1026.74 1026.50 1026.39
1022.81 1023.36 1023.70 1024.04 1024.11 1024.39 1025.05 1025.96 1026.63 1026.86 1026.76 1026.75 1027.29 1027.26 1027.45 1027.49 1027.18 1027.25 1027.29 1027.28 1027.33 1027.32 1027.23 1027.10 1026.88 1026.69 1026.70
1023.32 1023.71 1024.05 1024.35 1024.59 1024.77 1025.31 1025.66 1026.27 1026.73 1027.01 1026.87 1027.34 1027.36 1027.57 1027.69 1027.89 1027.76 1027.62 1027.56 1027.71 1027.70 1027.53 1027.32 1027.11 1026.92 1026.65
1024.51 1024.76 1024.93 1024.94 1025.00 1024.91 1025.23 1025.49 1026.07 1026.76 1027.34 1027.37 1027.48 1027.60 1027.61 1027.96 1028.07 1028.15 1028.12 1028.18 1028.08 1028.02 1027.80 1027.52 1027.15 1026.75 1026.51
1024.70 1025.04 1025.30 1025.51 1025.69 1025.82 1025.75 1025.69 1026.09 1026.88 1027.50 1027.54 1027.73 1027.91 1027.92 1028.02 1028.15 1028.30 1028.40 1028.48 1028.41 1028.17 1027.92 1027.60 1027.18 1026.88 1026.43
1024.85 1025.31 1025.71 1026.06 1026.32 1026.43 1026.51 1026.52 1026.66 1027.14 1027.73 1027.66 1027.90 1028.02 1028.19 1028.32 1028.29 1028.52 1028.66 1028.78 1028.62 1028.22 1027.90 1027.53 1027.20 1026.98 1026.70
1025.12 1025.59 1026.02 1026.40 1026.68 1026.90 1027.09 1027.24 1027.49 1027.68 1027.88 1027.96 1028.06 1028.42 1028.64 1028.65 1028.73 1028.89 1028.73 1028.70 1028.52 1028.30 1027.94 1027.60 1027.38 1027.14 1026.83
1025.24 1025.78 1026.29 1026.71 1026.98 1027.16 1027.52 1027.73 1027.88 1028.23 1028.42 1028.51 1028.64 1028.87 1028.94 1029.08 1029.07 1028.98 1029.03 1028.85 1028.68 1028.44 1028.24 1027.76 1027.36 1027.12 1026.90
1025.43 1025.89 1026.38 1026.82 1027.20 1027.52 1027.82 1028.06 1028.21 1028.57 1028.74 1028.93 1029.18 1029.16 1029.17 1029.30 1029.22 1029.24 1029.16 1029.00 1028.88 1028.68 1028.28 1027.79 1027.25 1026.90 1026.60
1025.58 1025.97 1026.41 1026.86 1027.31 1027.78 1028.00 1028.17 1028.49 1028.89 1029.00 1029.22 1029.33 1029.30 1029.32 1029.53 1029.33 1029.22 1029.24 1029.12 1028.85 1028.63 1028.39 1027.84 1026.95 1026.47 1026.29
1025.68 1026.07 1026.50 1026.97 1027.40 1027.78 1028.16 1028.49 1028.81 1029.01 1029.29 1029.54 1029.39 1029.34 1029.40 1029.42 1029.42 1029.28 1029.25 1029.07 1028.78 1028.31 1028.07 1027.84 1027.31 1026.50 1026.04
Thickness
5426 5425 5426 5428 5429 5430 5432 5434 5438 5443 5446 5447 5450 5449 5450 5449 5451 5452 5453 5451 5454 5455 5453 5456 5457 5461 5462
5420 5419 5419 5418 5418 5419 5420 5422 5426 5430 5433 5434 5434 5435 5435 5436 5435 5436 5436 5437 5436 5435 5436 5438 5440 5444 5445
5418 5415 5412 5410 5408 5408 5409 5409 5412 5414 5416 5417 5418 5420 5421 5421 5420 5422 5421 5420 5418 5419 5419 5418 5423 5424 5425
5412 5409 5407 5404 5403 5401 5398 5397 5398 5399 5400 5401 5402 5404 5405 5405 5405 5405 5402 5403 5402 5403 5404 5402 5404 5407 5407
5405 5402 5400 5398 5399 5395 5392 5388 5386 5387 5389 5389 5389 5391 5390 5389 5389 5389 5389 5388 5388 5390 5389 5389 5390 5391 5392
5399 5398 5395 5393 5390 5389 5385 5382 5383 5379 5380 5377 5377 5376 5375 5378 5378 5377 5377 5375 5376 5376 5375 5374 5376 5378 5378
5393 5391 5388 5386 5384 5382 5380 5378 5373 5368 5370 5368 5365 5366 5365 5367 5365 5365 5363 5363 5363 5363 5363 5363 5364 5365 5366
5384 5381 5379 5377 5377 5376 5373 5365 5361 5360 5360 5364 5356 5356 5355 5354 5354 5354 5353 5353 5353 5353 5353 5353 5354 5354 5354
5372 5371 5369 5368 5368 5367 5364 5363 5360 5355 5352 5354 5349 5349 5346 5345 5344 5344 5345 5345 5343 5343 5343 5343 5343 5344 5345
5358 5358 5358 5358 5359 5359 5358 5358 5354 5350 5343 5345 5343 5341 5342 5337 5336 5336 5335 5334 5334 5333 5333 5333 5335 5337 5338
5351 5349 5348 5348 5348 5347 5348 5349 5346 5340 5335 5335 5333 5332 5332 5332 5330 5328 5327 5325 5324 5325 5326 5327 5328 5329 5330
5343 5341 5339 5338 5336 5336 5336 5336 5334 5331 5327 5327 5326 5325 5324 5323 5324 5319 5317 5315 5316 5318 5319 5321 5322 5321 5320
5335 5333 5331 5329 5327 5326 5325 5324 5323 5321 5320 5320 5318 5316 5314 5314 5313 5310 5310 5309 5310 5312 5312 5312 5312 5311 5312
5329 5326 5323 5321 5319 5318 5316 5315 5315 5313 5311 5310 5308 5307 5306 5305 5304 5304 5302 5303 5303 5304 5303 5304 5304 5303 5302
5322 5319 5317 5314 5312 5310 5308 5307 5307 5304 5302 5300 5299 5299 5299 5298 5297 5295 5295 5295 5295 5295 5296 5298 5298 5298 5296
5315 5313 5311 5309 5306 5303 5302 5301 5299 5296 5295 5293 5293 5293 5292 5290 5290 5290 5288 5288 5288 5288 5288 5289 5292 5290 5287
5309 5307 5305 5303 5301 5298 5295 5294 5291 5290 5287 5285 5286 5287 5287 5288 5284 5282 5283 5283 5284 5286 5284 5281 5280 5281 5278